COSMOS 886 DEB, 9797

Orbit data source: Space-Track

COSMOS 886 DEB, 9797 is space debris in LEO originally from a launch on Mon, 27 Dec 1976 UTC launched from the Tyuratam Missile And Space Complex (TTMTR). Debris objects in space refer to the collection of defunct objects orbiting the Earth. Examples of debris include non-operational satellites, rocket bodies, and fragments generated from explosions, collisions, or faulty payload assembly.

Loading next visibility...
Identifier
9797, 1976-126X
Orbit
LEO
Country
Flag of CISCIS
Related business
Manufacturer
Unknown
Mission
Spacecraft
Bus & Motor
Unknown
Mass
Unknown
Launch date (UTC)
1976-12-27 (49 years ago)
Launch vehicle
Unknown
Launch site
Tyuratam Missile And Space Complex (TTMTR)
Object type
Payload
Rocket body
Debris
Shape & HBR
Unknown shape, 0.1 m
Radar Cross Section
Medium (>0.1 m² and <1 m²)

Expand to show TLE details & history
Last TLE update: 22 hours ago

TLE from 22 hours ago
0 COSMOS 886 DEB
1 09797U 76126X   26174.70428472  .00000286  00000-0  25063-3 0  9993
2 09797  65.8132 171.7602 0902885 180.6398 179.3542 12.81826684270792
Epoch: 2026-06-23T16:54Z
TLE epoch observation values (Epoch: 2026-06-23T16:54:10.199Z)
Latitude
-0.00002°
Longitude
6.34566°
Altitude
2,032.404 km
Speed
6.568 km/s
True Right ascension
11h 27m 02s
True Declination
0° 00' 00"
Sunlit
Object was in daylight at epoch
Visualization orbit readout
Latitude
Unknown
Longitude
Unknown
Altitude
Unknown
Speed
Unknown
Apparent Right ascension
Unknown
Apparent Declination
Unknown
Sunlit
N/A
Visualization observer readout
Local Sidereal Time
01:46:17
Azimuth
Unknown
Elevation
Unknown
Doppler factor
Unknown
Orbital elements
Apogee altitude
2,028.905 km
Perigee altitude
636.504 km
Semi-major axis
7,710.841 km
Eccentricity
0.09029
Inclination
65.8132°
RAAN
171.7602°
Arg. of periapsis
180.6398°
True anomaly
179.45895°
Mean anomaly
179.3542°
Eccentric anomaly
179.40768°
Mean motion
3.20546 °/min
Orbital period
112.31 mins
BSTAR
0.00025063
Loading maneuver chart data...
Computing Atmospheric mass density...

Documentation

Showing up to 5 results
|